リニア彗星

C/2007 JA21 ( LINEAR )

English version
Home page
Updated on October 12, 2008

---------------------------------------------------------------------

・ プロフィール

発見日 2007年5月11日
発見光度 19.9等
発見者 Lincoln Laboratory Near-Earth Asteroid Research project

・ 写真集

・ 軌道要素

The following orbital elements are taken from MPC 62581:

Epoch 2006 Nov. 1.0 TT = JDT 2454040.5
T 2006 Nov. 14.3813 TT                                  MPC
q   5.368174             (2000.0)            P               Q
z  -0.000426       Peri.   93.6987      -0.0292595      -0.4133137
 +/-0.000005       Node    65.5222      -0.4497578      -0.8076890
e   1.002288       Incl.   89.8404      +0.8926712      -0.4204882
From 137 observations 2007 May 11-2008 Apr. 4, mean residual 0".6.

・ 光度変化

        m1 = 9.5 + 5 logΔ + 7.0 log r

---------------------------------------------------------------------

軌道要素はMPCのEphemerides and Orbital Elementsに掲載されたものです。
光度グラフはComet for Windowsで作成したものです。

---------------------------------------------------------------------

Copyright(C) Seiichi Yoshida (comet@aerith.net). All rights reserved.